[[{"header":{"parameterUnit":"m.s-1","parameterCategory":1,"la1":30.2991,"la2":30.254,"lo1":-89.0895,"lo2":-89.0444,"dy":0.0017,"dx":0.0017,"nx":28,"ny":28,"refTime":"2025-06-01T21:00:00:Z","depth":0,"parameterNumber":2,"parameterNumberName":"U-component_of_WINDS"},"data":[0,0,0,0,0,0,0,0,0,0,0,0,0,0,0,0,0,0,0,0,0,0,0,0,0,0,0,0,0,0,0,0,0,0,0,0,0,0,0,0,0,0,0,0,0,0,0,0,0,0,0,0,0,0,0,0,0,0,-3.7885,-3.7886,0,-3.7997,-3.7998,-3.8,-3.7965,-3.7962,-3.796,-3.7958,-3.8071,-3.8076,-3.8082,0,0,0,0,0,0,0,0,0,0,0,0,0,-3.7637,-3.7642,-3.7884,-3.7886,-3.7887,-3.7997,-3.7998,-3.8,-3.7965,-3.7962,-3.7959,-3.7957,-3.807,-3.8076,-3.8082,0,0,0,0,0,0,0,0,0,0,0,0,0,-3.7747,-3.7644,-3.7884,-3.7883,-3.7884,-3.7997,-3.7998,-3.8,-3.7966,-3.7962,-3.7958,-3.7955,-3.8067,-3.8075,-3.8083,-3.8203,0,0,-3.8107,-3.811,0,0,0,0,0,0,0,0,-3.7741,-3.7756,-3.7882,-3.7883,-3.7885,-3.7963,-3.7953,-3.8068,-3.7967,-3.7935,-3.7958,-3.7953,-3.8038,-3.8048,-3.8077,-3.8208,-3.8213,-3.8108,-3.8112,-3.8116,-3.8118,0,0,0,0,0,0,0,-3.7733,-3.7751,-3.7929,-3.7884,-3.7886,-3.7876,-3.7888,-3.7975,-3.8005,-3.7937,-3.7935,-3.7949,-3.8038,-3.8069,-3.8079,-3.8214,-3.8107,-3.8114,-3.8119,-3.8122,-3.8447,-3.8451,0,0,0,0,0,0,-3.7725,-3.7745,-3.7925,-3.7932,-3.7803,-3.7884,-3.7897,-3.7942,-3.8004,-3.801,-3.7952,-3.7947,-3.8058,-3.807,-3.8083,-3.8225,-3.8116,-3.8123,-3.8128,-3.8443,-3.8448,-3.8452,0,0,0,0,0,0,-3.772,-3.7741,-3.7921,-3.7838,-3.786,-3.7892,-3.7942,-3.7946,-3.7977,-3.8015,-3.802,-3.7978,-3.8055,-3.8072,-3.8173,-3.8229,-3.8127,-3.8134,-3.8439,-3.8445,-3.845,-3.8512,0,0,0,0,0,0,-3.7713,-3.774,-3.7786,-3.7839,-3.7865,-3.8009,-3.7946,-3.795,-3.7991,-3.7985,-3.8041,-3.8047,-3.8054,-3.8161,-3.8181,-3.8238,-3.814,-3.8434,-3.8441,-3.8448,-3.8505,-3.8519,-3.8532,0,0,0,0,0,-3.7704,-3.7799,-3.7789,-3.7811,-3.7923,-3.8013,-3.8027,-3.8034,-3.7996,-3.8042,-3.8066,-3.8045,-3.822,-3.8172,-3.8193,-3.8254,-3.843,-3.8439,-3.8448,-3.8499,-3.8517,-3.8531,0,0,0,0,0,0,-3.7751,-3.7806,-3.7795,-3.791,-3.7957,-3.8007,-3.8065,-3.8052,-3.811,-3.8103,-3.8108,-3.8121,-3.8224,-3.8249,-3.8194,-3.8372,-3.8319,-3.8333,-3.8351,-3.8368,-3.8381,-3.8372,-3.8146,0,0,0,0,0,-3.7775,-3.7844,-3.7888,-3.7985,-3.801,-3.8034,-3.8073,-3.8074,-3.8122,-3.8142,-3.8173,-3.822,-3.8286,-3.8329,-3.8391,-3.851,-3.852,-3.8562,-3.8575,-3.8586,-3.8596,-3.8659,-3.8677,-3.8481,-3.8481,-3.8481,0,0,-3.7825,-3.7864,-3.7907,-3.7996,-3.8032,-3.8102,-3.805,-3.8127,-3.8178,-3.8153,-3.8249,-3.8274,-3.8327,-3.8437,-3.8487,-3.8461,-3.8653,-3.8597,-3.8605,-3.861,-3.867,-3.8688,-3.8705,-3.8487,-3.8486,-3.8485,0,0,-3.7951,-3.7989,-3.8073,-3.811,-3.8166,-3.8181,-3.8201,-3.8253,-3.8268,-3.8365,-3.8347,-3.8409,-3.8522,-3.856,-3.8594,-3.8734,-3.8716,-3.8754,-3.8822,-3.8883,-3.8898,-3.8912,-3.896,-3.8977,-3.8766,-3.8766,-3.8766,0,-3.8006,-3.8111,-3.8117,-3.8195,-3.8234,-3.8215,-3.8299,-3.8335,-3.8409,-3.8435,-3.8406,-3.8547,-3.8582,-3.8698,-3.8732,-3.8762,-3.8784,-3.8747,-3.8896,-3.891,-3.8922,-3.8968,-3.8986,-3.877,-3.8769,-3.8769,-3.8769,0,-3.8174,-3.8247,-3.8308,-3.8379,-3.8425,-3.8506,-3.8524,-3.857,-3.8567,-3.8585,-3.8683,-3.8724,-3.8794,-3.8822,-3.882,-3.8938,-3.8921,-3.8894,-3.8841,-3.8945,-3.8987,-3.9005,-3.8776,-3.8774,-3.8773,-3.8772,0,0,-3.8332,-3.8405,-3.8427,-3.8458,-3.8518,-3.8574,-3.8654,-3.8722,-3.876,-3.8812,-3.8877,-3.8973,-3.8948,-3.8987,-3.899,-3.9043,-3.9149,-3.901,-3.9011,-3.9032,-3.9279,-3.9296,-3.9316,-3.9138,-3.9142,-3.9144,-3.9273,0,-3.8461,-3.8601,-3.8608,-3.8735,-3.8801,-3.8784,-3.8853,-3.8896,-3.8915,-3.8974,-3.8995,-3.9062,-3.9026,-3.9048,-3.9101,-3.9125,-3.9198,-3.9116,-3.9197,-3.92,-3.9182,-3.9339,-3.9359,-3.9478,-3.929,-3.9293,-3.9295,0,-3.863,-3.8686,-3.8819,-3.8868,-3.8896,-3.8957,-3.9019,-3.9076,-3.9125,-3.9135,-3.9178,-3.9173,-3.9253,-3.9199,-3.9308,-3.9252,-3.9286,-3.9303,-3.9308,-3.9314,-3.9252,-3.9347,-3.9517,-3.9534,-3.9322,-3.932,-3.9318,0,-3.8729,-3.8838,-3.893,-3.8958,-3.9018,-3.9061,-3.9088,-3.9134,-3.9174,-3.9228,-3.9254,-3.9318,-3.9352,-3.9401,-3.9412,-3.9372,-3.9521,-3.9468,-3.953,-3.9529,-3.956,-3.9557,-3.9735,-3.9586,-3.9586,-3.9585,-3.9585,0,-3.8871,-3.8952,-3.8975,-3.9032,-3.9122,-3.913,-3.9219,-3.9243,-3.9283,-3.9344,-3.9334,-3.939,-3.9403,-3.9463,-3.9472,-3.956,-3.9576,-3.9585,-3.9587,-3.9585,-3.9583,-3.9605,-3.9596,-3.959,-3.9589,-3.9588,-3.9587,0,-3.8995,-3.9015,-3.9114,-3.9163,-3.9177,-3.9241,-3.9282,-3.9336,-3.9354,-3.943,-3.9449,-3.9477,-3.9546,-3.9562,-3.9645,-3.9651,-3.9754,-3.9749,-3.9738,-3.9737,-3.9796,-3.9789,-3.9992,-4.0018,-3.9855,-3.9856,-3.9858,0,-3.9083,-3.9145,-3.92,-3.924,-3.9269,-3.9333,-3.9374,-3.9384,-3.9427,-3.9486,-3.9533,-3.9601,-3.9655,-3.9766,-3.9793,-3.9856,-3.985,-3.9917,-3.986,-3.9855,-3.9848,-3.9843,-3.9849,-3.9927,-3.9929,-3.993,-3.9932,0,-3.9237,-3.9243,-3.9302,-3.9364,-3.9412,-3.9462,-3.9509,-3.9542,-3.9559,-3.9607,-3.9678,-3.972,-3.9804,-3.9871,-3.9934,-3.9961,-3.9949,-3.995,-3.9967,-3.9965,-3.9955,-3.9958,-3.9765,-3.9945,-3.9943,-3.9942,-3.9942,-3.9941,-3.9344,-3.9397,-3.9444,-3.9509,-3.9546,-3.959,-3.9643,-3.9667,-3.9726,-3.9794,-3.9797,-3.9873,-3.9919,-4.0003,-4.0033,-4.0092,-4.0072,-4.0097,-4.0103,-4.0109,-4.0113,-3.9947,-4.0104,-4.0104,-4.0104,-4.0103,-4.0103,0,-3.9495,-3.9524,-3.9584,-3.965,-3.9701,-3.9686,-3.9737,-3.9781,-3.9848,-3.9892,-3.9946,-4.0026,-4.009,-4.0123,-4.0187,-4.0228,-4.0223,-4.0244,-4.0239,-4.0245,-4.0129,-4.0106,-4.0246,-4.0246,-4.0246,-4.0246,-4.0246,-4.0246,-3.9579,-3.9668,-3.9679,-3.9785,-3.9814,-3.9888,-3.9918,-3.9958,-3.9993,-4.0083,-4.0136,-4.0157,-4.0196,-4.0263,-4.0321,-4.0329,-4.0351,-4.0374,-4.0379,-4.0269,-4.0254,-4.024,-4.0219,-4.038,-4.038,-4.049,-4.0491,-4.0492]},{"header":{"parameterUnit":"m.s-1","parameterCategory":1,"la1":30.2991,"la2":30.254,"lo1":-89.0895,"lo2":-89.0444,"dy":0.0017,"dx":0.0017,"nx":28,"ny":28,"refTime":"2025-06-01T21:00:00:Z","depth":0,"parameterNumber":3,"parameterNumberName":"V-component_of_WINDS"},"data":[0,0,0,0,0,0,0,0,0,0,0,0,0,0,0,0,0,0,0,0,0,0,0,0,0,0,0,0,0,0,0,0,0,0,0,0,0,0,0,0,0,0,0,0,0,0,0,0,0,0,0,0,0,0,0,0,0,0,3.1521,3.1521,0,3.154,3.154,3.1541,3.1473,3.1471,3.1469,3.1467,3.1483,3.1486,3.1488,0,0,0,0,0,0,0,0,0,0,0,0,0,3.1423,3.1425,3.1521,3.1521,3.1522,3.154,3.154,3.1541,3.1473,3.1471,3.1468,3.1466,3.1483,3.1485,3.1488,0,0,0,0,0,0,0,0,0,0,0,0,0,3.1456,3.1426,3.1521,3.149,3.1488,3.154,3.154,3.1541,3.1473,3.147,3.1467,3.1465,3.1482,3.1485,3.1488,3.1571,0,0,3.1499,3.1501,0,0,0,0,0,0,0,0,3.1454,3.146,3.1494,3.1492,3.149,3.1501,3.1512,3.1551,3.1474,3.1479,3.1467,3.1463,3.1491,3.1494,3.1504,3.1571,3.1572,3.1499,3.1502,3.1503,3.1504,0,0,0,0,0,0,0,3.1452,3.1459,3.1528,3.1495,3.1492,3.1474,3.1476,3.1519,3.1502,3.1478,3.1473,3.1477,3.1489,3.1501,3.1504,3.1572,3.1499,3.1502,3.1505,3.1506,3.1707,3.171,0,0,0,0,0,0,3.1454,3.1457,3.1528,3.1529,3.1464,3.1479,3.148,3.15,3.1501,3.1498,3.1479,3.1473,3.1496,3.15,3.1504,3.1599,3.1503,3.1506,3.1508,3.1703,3.1707,3.1711,0,0,0,0,0,0,3.1453,3.1461,3.1527,3.1492,3.1499,3.1483,3.1507,3.1502,3.1513,3.1502,3.1498,3.1494,3.1494,3.1499,3.1554,3.1599,3.1508,3.1511,3.17,3.1705,3.1709,3.179,0,0,0,0,0,0,3.145,3.1461,3.1493,3.1493,3.1501,3.1578,3.151,3.1505,3.152,3.1513,3.1515,3.1512,3.1492,3.155,3.1558,3.1602,3.1514,3.1695,3.1702,3.1707,3.1783,3.1797,3.1809,0,0,0,0,0,3.1447,3.1515,3.1495,3.1504,3.1541,3.1581,3.1585,3.1561,3.1524,3.1555,3.1548,3.1512,3.1593,3.1556,3.1565,3.161,3.1692,3.17,3.1707,3.1778,3.1794,3.1809,0,0,0,0,0,0,3.1519,3.1514,3.1492,3.1562,3.1573,3.1569,3.1608,3.158,3.16,3.1592,3.1561,3.1562,3.1623,3.1622,3.1581,3.1689,3.1636,3.1646,3.1687,3.1703,3.1715,3.1713,3.1517,0,0,0,0,0,3.1544,3.1578,3.1571,3.1634,3.164,3.1624,3.164,3.1621,3.163,3.1633,3.163,3.1639,3.1666,3.1685,3.1709,3.1784,3.1782,3.1819,3.1832,3.1843,3.185,3.1888,3.1904,3.1735,3.1735,3.1734,0,0,3.1594,3.1595,3.1619,3.1648,3.1654,3.1689,3.1627,3.1667,3.1692,3.1639,3.169,3.1689,3.1697,3.1762,3.179,3.1763,3.1897,3.1852,3.1861,3.1862,3.1897,3.1913,3.1927,3.174,3.1739,3.1738,0,0,3.1702,3.1708,3.176,3.1767,3.1777,3.1765,3.1778,3.1779,3.1776,3.1827,3.1788,3.1817,3.1865,3.1872,3.1882,3.1994,3.1961,3.2003,3.2068,3.2105,3.2119,3.213,3.2168,3.2182,3.2011,3.2011,3.2011,0,3.1763,3.1815,3.179,3.1832,3.1845,3.1801,3.1852,3.186,3.1877,3.1887,3.1857,3.1916,3.1918,3.1983,3.201,3.2021,3.2032,3.2001,3.2119,3.213,3.2141,3.2177,3.2191,3.2016,3.2015,3.2015,3.2014,0,3.1888,3.1924,3.1965,3.1983,3.2001,3.2048,3.2029,3.205,3.203,3.2021,3.2074,3.2075,3.2099,3.2113,3.2094,3.2175,3.2158,3.2125,3.207,3.2162,3.2195,3.2209,3.2023,3.2021,3.202,3.2018,0,0,3.2041,3.2045,3.206,3.2067,3.2075,3.2102,3.2146,3.217,3.2188,3.2202,3.2237,3.2279,3.2247,3.2259,3.2239,3.2272,3.2358,3.2234,3.2234,3.2255,3.2446,3.247,3.2486,3.2338,3.2341,3.2343,3.2445,0,3.2146,3.2222,3.2201,3.2277,3.2309,3.2267,3.2305,3.2314,3.2307,3.2333,3.2325,3.2354,3.2312,3.2318,3.2349,3.2341,3.2396,3.2334,3.2368,3.237,3.2365,3.2504,3.2529,3.2626,3.2458,3.246,3.2462,0,3.2279,3.2298,3.2377,3.2378,3.2391,3.2426,3.2445,3.2471,3.2479,3.2472,3.2485,3.2459,3.2501,3.2448,3.2505,3.2464,3.2477,3.2475,3.2478,3.2479,3.242,3.2506,3.2656,3.267,3.2482,3.248,3.2479,0,3.238,3.2425,3.2478,3.2486,3.2489,3.2514,3.2517,3.2522,3.2537,3.2555,3.2564,3.2586,3.2597,3.2614,3.2594,3.2558,3.2654,3.26,3.2647,3.2648,3.2667,3.2666,3.2819,3.268,3.2679,3.2679,3.2679,0,3.2498,3.2547,3.2523,3.2556,3.2609,3.2585,3.2638,3.2636,3.2641,3.2671,3.2637,3.2665,3.2639,3.2665,3.265,3.2698,3.2704,3.2698,3.2693,3.27,3.27,3.2706,3.2698,3.2683,3.2682,3.2681,3.2681,0,3.2619,3.2605,3.266,3.2659,3.266,3.2699,3.2698,3.2727,3.2718,3.2757,3.2764,3.275,3.2779,3.2762,3.2791,3.2781,3.2843,3.283,3.2841,3.2836,3.2884,3.2879,3.3045,3.3064,3.2914,3.2916,3.2917,0,3.2694,3.2731,3.2735,3.2753,3.2758,3.2787,3.2803,3.278,3.2797,3.2809,3.2837,3.2863,3.2882,3.2931,3.2922,3.2944,3.293,3.2987,3.2933,3.2939,3.2928,3.2926,3.2928,3.2997,3.2999,3.3,3.3001,0,3.2829,3.282,3.2844,3.2866,3.2886,3.2902,3.2915,3.2931,3.2908,3.293,3.2959,3.2974,3.3005,3.303,3.3049,3.305,3.3022,3.3019,3.303,3.3037,3.304,3.3037,3.2868,3.3014,3.3013,3.3012,3.3011,3.3011,3.2927,3.2958,3.2965,3.2992,3.3,3.3013,3.304,3.3035,3.3059,3.3082,3.3068,3.3102,3.3108,3.3131,3.3136,3.3162,3.3138,3.3156,3.316,3.3164,3.317,3.3038,3.3165,3.3165,3.3164,3.3164,3.3164,0,3.3058,3.306,3.3087,3.3106,3.3128,3.31,3.3113,3.3133,3.3164,3.3173,3.3193,3.3226,3.3251,3.3245,3.3267,3.3289,3.3276,3.3295,3.3292,3.3293,3.319,3.3177,3.3305,3.3305,3.3305,3.3305,3.3305,3.3305,3.3128,3.3178,3.317,3.3223,3.3224,3.3258,3.3268,3.3279,3.3286,3.3325,3.3346,3.3342,3.3345,3.3367,3.3388,3.3386,3.3395,3.3418,3.3411,3.3314,3.33,3.3287,3.3274,3.3421,3.3421,3.3511,3.3512,3.3512]}]]